Location: Barcelona
(41.3829°N, 2.1774°E)
Time: 00:08:29
(UTC+00:00)

ISS - Pass Details

Date: 01 May 2024
Orbit: 409 x 414 km, 51.6° (Epoch: 23 May)

Event Time Altitude Azimuth Distance (km) Brightness Sun altitude
Rises 04:11:25 0° 304° (NW) 2,343 -0.2 -7.1°
Reaches altitude 10° 04:14:14 10° 330° (NNW) 1,479 -1.0 -6.6°
Maximum altitude 04:16:10 15° 6° (N) 1,233 -0.9 -6.3°
Drops below altitude 10° 04:18:06 10° 42° (NE) 1,477 0.4 -6.0°
Sets 04:20:54 0° 68° (ENE) 2,337 2.9 -5.5°
